TimeMST,TemperatureF,Dew PointF,Humidity,Sea Level PressureIn,VisibilityMPH,Wind Direction,Wind SpeedMPH,Gust SpeedMPH,PrecipitationIn,Events,Conditions,WindDirDegrees,DateUTC
12:56 AM,44.1,35.1,71,30.31,10.0,South,6.9,-,N/A,,Mostly Cloudy,180,2012-11-05 07:56:00
1:56 AM,41.0,36.0,82,30.31,10.0,Variable,3.5,-,N/A,,Clear,0,2012-11-05 08:56:00
2:56 AM,39.0,34.0,82,30.29,10.0,ESE,5.8,-,N/A,,Clear,110,2012-11-05 09:56:00
3:56 AM,39.0,34.0,82,30.28,10.0,Calm,Calm,-,N/A,,Clear,0,2012-11-05 10:56:00
4:56 AM,37.9,33.1,83,30.27,10.0,South,5.8,-,N/A,,Clear,180,2012-11-05 11:56:00
5:56 AM,39.0,34.0,82,30.28,10.0,SE,3.5,-,N/A,,Clear,130,2012-11-05 12:56:00
6:56 AM,37.9,34.0,86,30.26,10.0,SE,11.5,-,N/A,,Scattered Clouds,130,2012-11-05 13:56:00
7:56 AM,44.1,36.0,73,30.26,10.0,SE,8.1,-,N/A,,Overcast,140,2012-11-05 14:56:00
8:56 AM,45.0,37.9,76,30.25,10.0,Calm,Calm,-,N/A,,Partly Cloudy,0,2012-11-05 15:56:00
9:56 AM,50.0,39.0,66,30.24,10.0,East,3.5,-,N/A,,Partly Cloudy,80,2012-11-05 16:56:00
10:56 AM,59.0,37.9,46,30.20,10.0,Calm,Calm,-,N/A,,Mostly Cloudy,0,2012-11-05 17:56:00
11:56 AM,64.9,35.1,33,30.15,10.0,WSW,13.8,-,N/A,,Clear,240,2012-11-05 18:56:00
12:56 PM,66.0,34.0,30,30.13,10.0,SW,19.6,26.5,N/A,,Partly Cloudy,230,2012-11-05 19:56:00
1:56 PM,66.0,34.0,30,30.13,10.0,WSW,15.0,27.6,N/A,,Clear,250,2012-11-05 20:56:00
2:56 PM,66.0,33.1,29,30.13,10.0,WSW,20.7,25.3,N/A,,Clear,240,2012-11-05 21:56:00
3:56 PM,64.9,30.0,27,30.15,10.0,West,10.4,19.6,N/A,,Clear,260,2012-11-05 22:56:00
4:56 PM,62.1,30.0,30,30.17,10.0,WSW,6.9,-,N/A,,Clear,240,2012-11-05 23:56:00
5:56 PM,57.9,32.0,37,30.19,10.0,WSW,4.6,-,N/A,,Clear,240,2012-11-06 00:56:00
6:56 PM,55.0,30.9,40,30.23,10.0,West,5.8,-,N/A,,Clear,280,2012-11-06 01:56:00
7:56 PM,52.0,32.0,47,30.22,10.0,WNW,10.4,-,N/A,,Clear,300,2012-11-06 02:56:00
8:56 PM,51.1,30.0,44,30.23,10.0,West,8.1,-,N/A,,Clear,280,2012-11-06 03:56:00
9:56 PM,48.0,30.0,50,30.24,10.0,ENE,3.5,-,N/A,,Clear,60,2012-11-06 04:56:00
10:56 PM,50.0,30.0,46,30.19,10.0,Calm,Calm,-,N/A,,Clear,0,2012-11-06 05:56:00
11:56 PM,44.1,32.0,63,30.20,10.0,North,6.9,-,N/A,,Clear,10,2012-11-06 06:56:00